Regional Weather Roundup
Issued by NWS Charleston, SC

Current Version | Previous Version | Graphics & Text | Print | Product List | Glossary On
Versions: 1 2 3 4 5 6 7 8 9 10 11 12 13 14 15 16 17 18 19 20 21 22 23 24 25 26 27 28 29 30 31 32 33 34 35 36 37 38 39 40 41 42 43 44 45 46 47 48 49 50
649
ASUS42 KCHS 242227
RWRCHS

Regional Weather Roundup
National Weather Service Charleston SC
600 PM EDT THU MAY 24 2018

NOTE: "fair" indicates few or no clouds below 12,000 feet with no
significant weather and/or obstructions to visibility.

Not all stations are quality controlled. Use data with caution,
especially dewpoint observations.

SCZ027-030-031-034>040-042>050-242300-
...Southeast South Carolina...

CITY           SKY/WX    TMP DP  RH WIND       PRES   REMARKS
N Charleston   LGT RAIN  77  74  90 SE5       30.09R
Waterfront Prk   N/A     77  73  87 SE9       29.92R
Mount Pleasant FAIR      77  73  88 CALM      30.09S
Johns Island   MOCLDY    77  73  88 SE6       30.09R
Pinopolis        N/A     79  72  78 VRB2      30.03R
Moncks Corner  FAIR      75  72  88 S3        30.09F
Summerville    FAIR      73  72  94 CALM      30.10R
Beaufort MCAS  LGT RAIN  76  76 100 CALM      30.09R FOG
Beaufort Arpt  RAIN      73  73 100 CALM      30.09R
Hilton Head Is LGT RAIN  77  73  88 S3        30.09R
Walterboro     LGT RAIN  72  72 100 CALM      30.13R
Allendale      CLOUDY    72  72 100 SE3       30.09R FOG

...Southern Midlands and Pee Dee...

CITY           SKY/WX    TMP DP  RH WIND       PRES   REMARKS
Georgetown     FAIR      77  75  94 SE6       30.11S
Kingstree      LGT RAIN  73  72  94 CALM      30.09S
Orangeburg     LGT RAIN  74  71  91 W3        30.10R
Barnwell       RAIN      72  72 100 SE6       30.09S
Aiken          MOCLDY    68  68 100 SE7       30.12S
Manning        FAIR      70  68  94 CALM      30.09S
Columbia       PTSUNNY   79  72  79 SE13      30.08R
Sumter         LGT RAIN  76  72  88 E5        30.07R
Florence       TSTM      72  70  93 SE5       30.11R FOG
Myrtle Beach   CLOUDY    76  72  87 E9        30.12R
N Myrtle Beach CLOUDY    76  70  82 E10       30.11R

$$

GAZ063-065-086>088-099>101-113>116-118-119-134>141-150-242300-
...Southeast Georgia...

CITY           SKY/WX    TMP DP  RH WIND       PRES   REMARKS
Savannah Arpt  CLOUDY    76  74  93 E6        30.07R
Hunter AAF     PTSUNNY   77  72  83 SE7       30.04
Fort Stewart   TSTM      73  68  83 NE6       30.05R
Statesboro     TSTM      69  69  99 E3        30.07F
Sylvania       CLOUDY    72  72  99 CALM      30.10R
Claxton        RAIN      73  72  96 NE3       30.07S

...CSRA, Central and far Southeast Georgia...

CITY           SKY/WX    TMP DP  RH WIND       PRES   REMARKS
Thomson        FAIR      74  71  89 CALM      30.12R
Augusta-Bush   LGT RAIN  73  71  93 E3        30.08R
Augusta-Daniel LGT RAIN  73  71  93 S5        30.09R
Swainsboro     RAIN      73  72  94 SE3       30.06F
Vidalia        FAIR      73  70  88 E5        30.06R
Eastman        DRIZZLE   74  66  76 CALM      30.08R
Hazlehurst     LGT RAIN  74  71  88 CALM      30.04R
Alma           LGT RAIN  72  70  93 E6        30.05R
Waycross       TSTM      74  71  90 E12       30.05R
Jesup          MOCLDY    77  71  82 CALM      30.06R THUNDER
Baxley         TSTM      70  70 100 E6        30.07R
Brunswick      FAIR      79  70  73 SE10      30.06R
Saint Simons   PTSUNNY   79  74  84 SE12      30.04S

$$

SCZ027-028-034-036>038-045-046-048>050-GAZ119-141-242300-
...Lake and Supplemental Coastal Observations...

STATION/POSITION TIME  TEMP    WIND        PRES    WAVE   SWELL
                       AIR SEA DIR/SP/G            HT/PER HT/PER/DIR
                 (UTC) (F)     (DEG/KT/KT) (MB)    (FT/S) (FT/S/D)
Winyah Bay       2145   77     130/  4     1019.0S
Lake Murray      2120   80     130/  5/ 12 1017.3
ACE Basin NERRS  2145   76     140/  2     1019.0S
Fort Pulaski     2200   77 79  160/  5/  8 1018.7
Sapelo Island    2200   78     130/  7     1017.0

$$

ANZ835-935-AMZ111-154-330-350-352-354-370-450-454-472-242300-
...C-MAN and Buoy Observations...

STATION/POSITION TIME  TEMP    WIND        PRES    WAVE   SWELL
                       AIR SEA DIR/SP/G            HT/PER HT/PER/DIR
                 (UTC) (F)     (DEG/KT/KT) (MB)    (FT/S) (FT/S/D)
Buoy 41004       2200      77  140/  8/ 10 1018.8
Buoy 41008       2150   77 77  160/  8/ 10 1017.7R   3/ 8   2/120/ 8
Folly Beach CMAN 2200   77     150/  9/ 10 1019.4R
Capers Nearshore 2208   78 78  180/  8/ 10 1019.6R
Fripp Nearshore  2208   77 79  150/  8/ 10 1018.4R


STATION/POSITION TIME  TEMP    WIND        PRES    WAVE   SWELL
                       AIR SEA DIR/SP/G            HT/PER HT/PER/DIR
                 (UTC) (F)     (DEG/KT/KT) (MB)    (FT/S) (FT/S/D)
5E St. Marys GA  2200      78                N/A     3/ 9
Frying Pan Buoy  2210   76 77   90/ 12/ 14 1019.2
Buoy 41025       2210   75 77   30/ 10/ 12 1020.4
Cape Lookout NC  2200           60/  9/ 10 1020.3F
Buoy 41002       2210      79   CALM  /  2 1018.7
Buoy 41010       2210   76 80  100/ 14/ 17 1019.0
St Augustine FL  2200   78 81  130/ 13/ 14 1017.7S


$$




USA.gov is the U.S. government's official web portal to all federal, state and local government web resources and services.